Regional Weather Roundup
Issued by NWS

Home | Current Version | Previous Version | Text Only | Print | Product List | Glossary Off
Versions: 1 2 3 4 5 6 7 8 9 10 11 12 13 14 15 16 17 18 19 20 21 22 23 24 25 26 27 28 29 30 31 32 33 34 35 36 37 38 39 40 41 42 43 44 45 46 47 48 49 50

000
ASUS43 KLSX 060007
RWRMO

WEATHER SUMMARY FOR MISSOURI
NATIONAL WEATHER SERVICE SPRINGFIELD MO
600 PM CST MON DEC 05 2016

NOTE: "FAIR" INDICATES FEW OR NO CLOUDS BELOW 12,000 FEET WITH NO
       SIGNIFICANT WEATHER AND/OR OBSTRUCTIONS TO VISIBILITY.
       CURRENT SKY AND/OR WEATHER CONDITIONS ARE NOT AVAILABLE FOR
       CHILLICOTHE AND FARMINGTON.

MOZ001>031-035>038-043-044-053-054-060100-
...NORTHERN AND WESTERN MISSOURI...

CITY           SKY/WX    TMP DP  RH WIND       PRES   REMARKS
KANSAS CTY INT CLEAR     42  31  64 SE8       29.74S
6HR MIN TEMP:  41; 6HR MAX TEMP:  52;

KANSAS C DTWN  CLEAR     47  35  63 SE8       29.75S
6HR MIN TEMP:  47; 6HR MAX TEMP:  53;

LEE`S SUMMIT   CLOUDY    43  32  65 SE6       29.76S
6HR MIN TEMP:  43; 6HR MAX TEMP:  51;

ST JOSEPH      CLEAR     44  33  65 SE9       29.72F
6HR MIN TEMP:  41; 6HR MAX TEMP:  52;

CHILLICOTHE      N/A     44  33  65 SE8       29.79S
6HR MIN TEMP:  44; 6HR MAX TEMP:  51;

KIRKSVILLE     CLOUDY    38  37  97 SE10      29.82F
6HR MIN TEMP:  35; 6HR MAX TEMP:  40;


$$
MOZ066>068-077>081-088>096-101>105-060100-
...SOUTHWEST MISSOURI...

CITY           SKY/WX    TMP DP  RH WIND       PRES   REMARKS
SPRINGFIELD    CLEAR     38  33  82 SE8       29.75S
6HR MIN TEMP:  38; 6HR MAX TEMP:  45;

JOPLIN         CLEAR     41  37  86 VRB5      29.76R
6HR MIN TEMP:  41; 6HR MAX TEMP:  49;

BRANSON        CLOUDY    41  36  81 SE9       29.76S

$$
MOZ032>034-039>042-045>050-055>058-069>072-060100-
...CENTRAL MISSOURI...

CITY           SKY/WX    TMP DP  RH WIND       PRES   REMARKS
COLUMBIA       CLEAR     39  36  89 E10       29.80F
6HR MIN TEMP:  38; 6HR MAX TEMP:  46;

JEFFERSON CITY PTCLDY    41  36  82 E6        29.81F
6HR MIN TEMP:  37; 6HR MAX TEMP:  47;

ROLLA          PTCLDY    40  35  83 E7        29.79S
6HR MIN TEMP:  40; 6HR MAX TEMP:  47;

SEDALIA        CLOUDY    39  34  82 E6        29.80S
6HR MIN TEMP:  39; 6HR MAX TEMP:  52;

WHITEMAN AFB   PTCLDY    40  35  82 SE6       29.77R
OSAGE BEACH    PTCLDY    40  33  76 E5        29.79F

$$
MOZ051-052-059>065-060100-
...EAST CENTRAL MISSOURI...

CITY           SKY/WX    TMP DP  RH WIND       PRES   REMARKS
ST LOUIS INTL  MOCLDY    41  34  76 E8        29.86F
6HR MIN TEMP:  41; 6HR MAX TEMP:  46;

SPIRIT OF STL  PTCLDY    37  35  92 E5        29.86S
6HR MIN TEMP:  37; 6HR MAX TEMP:  47;

ST CHARLES     PTCLDY    38  36  92 E10       29.87F
6HR MIN TEMP:  38; 6HR MAX TEMP:  45;


$$
MOZ072>076-082>087-097>100-106>115-060100-
...SOUTH CENTRAL AND SOUTHEAST MISSOURI...

CITY           SKY/WX    TMP DP  RH WIND       PRES   REMARKS
CAPE GIRARDEAU CLOUDY    41  35  79 E6        29.88F
6HR MIN TEMP:  39; 6HR MAX TEMP:  45;

FARMINGTON     CLOUDY    38  34  85 E5        29.84F
6HR MIN TEMP:  38; 6HR MAX TEMP:  48;

POPLAR BLUFF   CLOUDY    42  39  89 E7        29.85F
6HR MIN TEMP:  42; 6HR MAX TEMP:  43;

WEST PLAINS    PTCLDY    40  36  86 E6        29.79F
6HR MIN TEMP:  40; 6HR MAX TEMP:  46;


$$


USA.gov is the U.S. government's official web portal to all federal, state and local government web resources and services.